ダウンロードリスト

プロジェクト概要

EHR/EMRは、一次医療から継続介護に至る多言語医療知識管理システムのための自律的で、オープンなデータベース・モデルを設計、実装並びに利用するためのクロスプラットフォームなソフトウェアです。

システム要件

オペレーティングシステム: OS非依存, Windows XP

ダウンロードパッケージ一覧

最新ファイル(5件)
名前 サイズ 日付 ダウンロード数
MEDILIG FE MSAccess - Installation.pdf 935.3 KB 2010-10-02 23:29 51
MEDILIG README FIRST.pdf 384.4 KB 2010-10-02 23:22 117
MEDILIGFE_NEUROSURGERY.accdb 4.7 MB 2010-09-30 23:09 104
MEDILIG RECENT CHANGES.pdf 321.9 KB 2010-09-23 16:51 42
MEDILIG_20100913.ZIP 121.4 MB 2010-09-14 01:16 60
その他全ファイル
FE_MSAccess
MEDILIG FE MSAccess - Installation.pdf935.3 KB2010-10-02 23:2951
MEDILIGFE_NEUROSURGERY.accdb4.7 MB2010-09-30 23:09104
MEDILIG FE MSAccess - User Guide.pdf2.1 MB2010-09-13 23:4945
Data Sources (ODBC).lnk1.5 KB2010-09-10 21:0945
MEDILIG README FIRST.pdf384.4 KB2010-10-02 23:22117
MEDILIG RECENT CHANGES.pdf321.9 KB2010-09-23 16:5142
MEDILIG_20100913.ZIP121.4 MB2010-09-14 01:1660
FE_OpenOffice
MEDILIG FE OpenOffice - User Guide.pdf741.8 KB2010-09-13 23:5140
MEDILIG FE OpenOffice - INSTALLATION.pdf658.3 KB2010-09-13 23:5048
MEDILIG_JDBC_MYSQL.odb29.2 KB2010-09-13 23:2423
MEDILIG_ODBC_MSQL.odb1.7 KB2010-09-08 04:3425
Connectors
mysql-connector-java-5.1.13-bin.jar749.5 KB2010-06-23 22:384888
mysql-connector-ooo-1.0.0-windows-intel.oxt1.9 MB2010-06-20 04:4292
mysql-connector-odbc-5.1.6-win32.msi4.4 MB2009-12-03 03:021905
mysql-connector-net-6.1.3.msi6.9 MB2009-11-11 17:34364
DB_MYSQL
MEDILIG MYSQL - User Guide.pdf2.3 MB2010-09-13 23:4661
MEDILIG MYSQL - INSTALLATION.pdf1.1 MB2010-09-13 23:4464
DATA_LUT
MEDILIG_NEUROSURGERY_LUT_DATA.ods79.2 KB2010-09-13 20:2333
MEDILIG_MYSQL_WORKBENCH.mwb128.4 KB2010-09-13 18:4466
MEDILIG_MYSQL 20100907 2253.sql1.1 MB2010-09-08 03:5422
DB_MSQL
MEDILIG MSQL - INSTALLATION.pdf1.4 MB2010-09-13 23:4340
MEDILIG MSQL - User Guide.pdf2.3 MB2010-09-13 23:4130
DATA_MDF
MEDILIG_dat.MDF33.9 MB2010-09-13 22:2037
MEDILIG_log.LDF504.0 KB2010-09-13 22:2035
DATA_SQL
LUT_ImportData.sql2.5 KB2010-09-10 02:1037
attach_medilig_neurosurgery.sql0.2 KB2010-09-10 01:4326
MEDILIG_MSQL_v1.sql291.7 KB2010-03-11 06:5631
INSTALL_MSQL
SQL Server 2005 Express redistribution license (English).rtf151.1 KB2010-09-09 19:0132
SQL Server 2005 Management Studio Express .msi44.2 MB2010-09-07 18:26123
SQLEXPR_32_SP3.EXE36.8 MB2010-09-07 18:1924
SSEUtil.exe160.0 KB2005-11-01 01:40115
ReadMe.htm91.1 KB2005-11-01 01:4048
DATA_LUT
MEDILIG_NEUROSURGERY_LUT_DATA.xls292.5 KB2010-09-08 18:1225
LUT_Vx_Status.dat0.6 KB2010-03-09 02:2923
LUT_Vx_Outcome.dat0.8 KB2010-03-09 02:2921
LUT_Telecom_Type.dat0.4 KB2010-03-09 02:2923
LUT_Telecom_Mode.dat0.3 KB2010-03-09 02:2936
LUT_Rx_Route.dat1.1 KB2010-03-09 02:2923
LUT_Rx_Form.dat0.5 KB2010-03-09 02:2926
LUT_Rx_Drug_Category.dat2.0 KB2010-03-09 02:2925
LUT_Rx_Drug.dat4.5 KB2010-03-09 02:2919
LUT_Rx_DoseUnit.dat0.4 KB2010-03-09 02:2921
LUT_PxAuthentication_Type.dat0.4 KB2010-03-09 02:2919
LUT_Px_ReferralType.dat1.9 KB2010-03-09 02:2924
LUT_Px_Profession.dat0.3 KB2010-03-09 02:2929
LUT_Px_Gender.dat0.2 KB2010-03-09 02:2941
LUT_Px_Education.dat0.3 KB2010-03-09 02:2929
LUT_Ox_Priority.dat2.3 KB2010-03-09 02:2935
LUT_Ox_Method.dat4.3 KB2010-03-09 02:2924
LUT_Ox_Approach.dat0.6 KB2010-03-09 02:2921
LUT_Ox_Anesthesia.dat0.3 KB2010-03-09 02:2919
LUT_Mx_Type.dat1.0 KB2010-03-09 02:2923
LUT_Mx_Format.dat2.0 KB2010-03-09 02:2922
LUT_Lx_Range.dat0.9 KB2010-03-09 02:2926
LUT_Lx_Type.dat2.1 KB2010-03-09 02:2927
LUT_Lx_Category.dat0.2 KB2010-03-09 02:2917
LUT_Ix_Type.dat0.8 KB2010-03-09 02:2828
LUT_Hx_Type.dat3.7 KB2010-03-09 02:2817
LUT_Hx_Category.dat0.6 KB2010-03-09 02:2821
LUT_HPx_Specialty.dat9.0 KB2010-03-09 02:2831
LUT_HPx_Role.dat0.9 KB2010-03-09 02:2828
LUT_HPx_Grade.dat1.0 KB2010-03-09 02:2839
LUT_Dx_Type.dat5.1 KB2010-03-09 02:2824
LUT_Dx_Status.dat0.5 KB2010-03-09 02:2833
LUT_Dx_Severity.dat0.9 KB2010-03-09 02:2815
LUT_Dx_Pathology.dat9.1 KB2010-03-09 02:2827
LUT_Dx_Localization.dat2.9 KB2010-03-09 02:2824
LUT_Dx_Laterality.dat0.3 KB2010-03-09 02:2825
LUT_Dx_Chronicity.dat0.2 KB2010-03-09 02:2823
LUT_Dx_Category.dat4.2 KB2010-03-09 02:2821
LUT_Dx_BroadCategory.dat1.6 KB2010-03-09 02:2818
LUT_Cx_Ward.dat0.7 KB2010-03-09 02:2839
LUT_Cx_Type.dat1.0 KB2010-03-09 02:2825
LUT_Cx_Degree.dat0.5 KB2010-03-09 02:2821
LUT_Cx_BedType.dat1.2 KB2010-03-09 02:2830
LUT_CSx_Variation.dat0.3 KB2010-03-09 02:2719
LUT_CSx_Type.dat7.0 KB2010-03-09 02:2726
LUT_CSx_Progression.dat0.3 KB2010-03-09 02:2720
LUT_CSx_Intensity.dat1.1 KB2010-03-09 02:2736
LUT_CSx_CourseType.dat0.2 KB2010-03-09 02:2729
LUT_CStage.dat0.7 KB2010-03-09 02:2730
LUT_COx_Type.dat3.8 KB2010-03-09 02:2718
LUT_COx_Range.dat4.5 KB2010-03-09 02:2724
LUT_Course_Outcome.dat0.3 KB2010-03-09 02:2730
LUT_Course_Complication_Type.dat6.3 KB2010-03-09 02:2628
LUT_Contact_RelType.dat0.5 KB2010-03-09 02:2621
LUT_CEx_CC.dat4.8 KB2010-03-09 02:2628
LUT_Ax_Type.dat0.7 KB2010-03-09 02:2627
LUT_Ax_Transfer.dat0.6 KB2010-03-09 02:2623
LUT_Ax_Status.dat1.4 KB2010-03-09 02:2621
LUT_Ax_OperativeStatus.dat0.3 KB2010-03-09 02:2616
LUT_Ax_DischargeRegularity.dat0.4 KB2010-03-09 02:2628
LUT_Address_Type.dat0.4 KB2010-03-09 02:2630
LUT_Address_StateProvince.dat1.6 KB2010-03-09 02:2635
LUT_Address_Country.dat2.6 KB2010-03-09 02:2623
LUT_Address_City.dat3.0 KB2010-03-09 02:2520
test.bat0.3 KB2010-03-05 01:2731
lutexport.bat10.7 KB2010-03-05 01:2624
MEDILIG INTRODUCTION.pdf508.6 KB2010-09-13 23:3835
DB_PROTEGE
catalog-v001.xml0.6 KB2010-09-09 01:3430
medilig_ontology_imported_by_datamaster.owl1.5 MB2010-09-09 01:3427
OntoGraf_mt_Px.graph2.7 KB2010-09-09 01:2229
DB_VISUALIZER
MEDILIG_MYSQL.xml202.0 KB2010-09-08 20:5020
MEDILIG_Hierarchy_Diagram.pdf32.1 KB2010-06-20 21:3626
MEDILIG-organic-diagram.gml41.6 KB2010-06-20 21:1531
MEDILIG_organic.pdf21.2 KB2010-06-20 21:0837
DB_COMPARISON
ER MEDILIG MSQL DIAGRAM.pdf600.6 KB2010-07-30 23:2149
ER MEDILIG MSQL GRAPH.pdf24.8 KB2010-07-30 22:0844
ER HL7.pdf456.0 KB2010-06-28 20:0493
ER NHS.pdf654.6 KB2010-06-28 19:4141
ER OpenEHR.pdf593.3 KB2010-03-11 19:03118
Archives
MEDILIG_20100325.ZIP8.9 MB2010-03-26 00:4318
LICENSE
ODbL-10.txt24.7 KB2010-03-19 21:5050
GNU GPLv3.txt34.3 KB2010-03-18 19:3869